Charlotte, NC

5:05 PM EST on February 24, 2018 (GMT -0500)
Charlotte-Douglas International

Weather History for KCLT - August, 2014

Change the Weather History Date:

Sunday, August 10, 2014

  Actual Average Record
Temperature  
Mean Temperature 70 °F 78 °F  
Max Temperature 73 °F 88 °F 104 °F (2007)
Min Temperature 67 °F 68 °F 56 °F (1879)
Degree Days  
Heating Degree Days 0 0  
Month to date heating degree days 0 0  
Since 1 June heating degree days 0 3  
Since 1 July heating degree days 0 0  
Cooling Degree Days 5 13  
Month to date cooling degree days 98 130  
Year to date cooling degree days 1094 1024  
Since 1 June cooling degree days 866 861  
Growing Degree Days 20 (Base 50)    
Moisture  
Dew Point 66 °F    
Average Humidity 86    
Maximum Humidity 93    
Minimum Humidity 79    
Precipitation  
Precipitation 0.01 in 0.13 in 2.26 in (1905)
Month to date precipitation 2.57 1.39  
Year to date precipitation 32.59 25.77  
Snow  
Snow 0.00 in 0.00 in 0.00 in ()
Month to date snowfall 0.0 0.0  
Since 1 June snowfall 0.0 0.0  
Since 1 July snowfall 0.0 0.0  
Snow Depth 0.00 in    
Sea Level Pressure  
Sea Level Pressure 30.07 in    
Wind  
Wind Speed 6 mph (NE)    
Max Wind Speed 12 mph    
Max Gust Speed 23 mph    
Visibility 7 miles    
Events Rain    
T = Trace of Precipitation, MM = Missing Value Source: NWS Daily Summary

Daily Weather History Graph

Daily Weather History Graph

Search for Another Location

Airport or City:

Trip Planner

Search our weather history database for the weather conditions in past years. The results will help you decide how hot, cold, wet, or windy it might be!

Date:

Astronomy

Aug. 10, 2014 Rise Set
Actual Time 6:39 AM EDT 8:18 PM EDT
Civil Twilight 6:12 AM EDT 8:45 PM EDT
Nautical Twilight 5:39 AM EDT 9:17 PM EDT
Astronomical Twilight 5:04 AM EDT 9:52 PM EDT
Moon 8:06 PM EDT (8/10) 6:28 AM EDT (8/10)
Length of Visible Light 14h 32m
Length of Day
13h 38m
Full, 100% of the Moon is Illuminated
Aug 10
Full
Aug 10
Full
Aug 17
Last Quarter
Aug 25
New
Sep 2
First Quarter

Hourly Weather History & Observations

Time (EDT) Temp. Dew Point Humidity Pressure Visibility Wind Dir Wind Speed Gust Speed Precip Events Conditions
12:43 AM 68.0 °F 64.4 °F 88% 30.10 in 6.0 mi NE 6.9 mph - N/A   Overcast
12:52 AM 68.0 °F 64.0 °F 87% 30.08 in 6.0 mi NNE 5.8 mph - N/A   Overcast
1:52 AM 66.9 °F 64.0 °F 90% 30.06 in 5.0 mi NE 6.9 mph - N/A   Overcast
2:52 AM 66.9 °F 64.9 °F 93% 30.05 in 4.0 mi NNE 6.9 mph - N/A   Overcast
3:52 AM 66.9 °F 64.0 °F 90% 30.03 in 4.0 mi NNE 8.1 mph - N/A   Overcast
4:52 AM 66.9 °F 64.0 °F 90% 30.04 in 5.0 mi ENE 8.1 mph - N/A   Overcast
5:52 AM 66.9 °F 64.9 °F 93% 30.02 in 5.0 mi NE 5.8 mph - N/A   Overcast
6:52 AM 68.0 °F 64.9 °F 90% 30.05 in 10.0 mi NE 3.5 mph - N/A   Overcast
7:52 AM 68.0 °F 64.9 °F 90% 30.08 in 5.0 mi NE 6.9 mph - N/A   Overcast
7:57 AM 68.0 °F 64.4 °F 88% 30.10 in 3.0 mi NE 5.8 mph - N/A   Overcast
8:39 AM 68.0 °F 64.4 °F 88% 30.10 in 3.0 mi ENE 6.9 mph - N/A   Overcast
8:52 AM 69.1 °F 64.9 °F 87% 30.09 in 10.0 mi NE 6.9 mph - N/A   Overcast
9:08 AM 69.8 °F 64.4 °F 83% 30.10 in 10.0 mi ENE 6.9 mph - N/A   Overcast
9:52 AM 69.8 °F 64.4 °F 83% 30.10 in 6.0 mi East 5.8 mph - N/A Rain Light Rain
10:52 AM 70.0 °F 66.0 °F 87% 30.09 in 10.0 mi NE 5.8 mph - 0.01 in   Overcast
11:52 AM 71.1 °F 66.0 °F 84% 30.10 in 10.0 mi NNE 6.9 mph - N/A   Overcast
12:52 PM 71.1 °F 66.0 °F 84% 30.09 in 10.0 mi NE 6.9 mph - N/A   Overcast
1:52 PM 72.0 °F 66.0 °F 81% 30.08 in 10.0 mi Variable 4.6 mph - N/A   Overcast
2:09 PM 71.6 °F 66.2 °F 83% 30.09 in 10.0 mi NE 6.9 mph - N/A   Overcast
2:52 PM 73.0 °F 66.9 °F 81% 30.07 in 10.0 mi Variable 5.8 mph - N/A   Overcast
3:52 PM 73.4 °F 66.2 °F 78% 30.08 in 7.0 mi NNE 8.1 mph - N/A   Overcast
4:52 PM 73.0 °F 66.9 °F 81% 30.04 in 8.0 mi Variable 6.9 mph 17.3 mph N/A   Overcast
5:52 PM 72.0 °F 66.9 °F 84% 30.05 in 6.0 mi NE 6.9 mph - N/A   Haze
6:22 PM 71.6 °F 66.2 °F 83% 30.07 in 7.0 mi NE 5.8 mph - N/A   Overcast
6:52 PM 71.1 °F 66.9 °F 87% 30.05 in 6.0 mi ENE 6.9 mph - N/A   Overcast
7:52 PM 71.6 °F 66.2 °F 83% 30.07 in 6.0 mi NE 5.8 mph - N/A   Haze
8:52 PM 72.0 °F 68.0 °F 87% 30.04 in 5.0 mi Variable 5.8 mph - N/A   Overcast
9:52 PM 72.0 °F 68.0 °F 87% 30.05 in 6.0 mi North 3.5 mph - N/A   Overcast
10:20 PM 71.6 °F 68.0 °F 88% 30.08 in 7.0 mi NNE 4.6 mph - N/A   Overcast
10:52 PM 72.0 °F 68.0 °F 87% 30.06 in 7.0 mi NNE 4.6 mph - N/A   Overcast
11:52 PM 71.6 °F 68.0 °F 88% 30.08 in 7.0 mi Calm Calm - N/A   Overcast